Temp
18 18 18 20 19 19 19 20 20 22 23 22 21 21 20 20 19 20 20 20 20 19 19 19 19 18 18 18 17 17 17 17 16 16 16 15 15 15
19 18 18 19 19 19 19 20 20 20 21 22 22 21 20 21 20 21 21 21 21 21 20 20 20 19 19 18 18 17 17 17 17 16 16 15 15 15
18 18 18 18 19 20 20 19 20 20 20 22 22 21 21 23 22 22 22 22 21 21 21 21 21 20 20 19 19 18 18 17 17 17 16 16 15 15
18 18 18 19 20 20 19 19 20 20 20 20 20 20 20 20 21 22 22 20 20 20 21 22 21 21 20 20 20 19 19 18 18 17 17 16 15 15
19 19 19 18 18 20 19 20 20 19 19 19 20 20 21 20 20 19 19 19 20 19 19 21 21 21 21 21 20 20 20 19 18 18 17 17 16 15
19 19 19 19 19 19 19 19 19 19 20 20 20 21 22 21 21 20 20 20 21 21 20 19 19 19 20 21 21 21 20 20 19 18 18 17 16 16
19 19 20 20 20 21 20 20 19 19 20 21 21 22 22 22 22 21 21 21 21 21 21 21 21 20 20 19 19 19 20 20 20 19 18 18 17 17
20 20 21 21 22 22 21 21 21 20 20 20 21 21 21 20 21 21 21 21 21 21 20 20 20 20 19 19 19 19 18 19 18 18 17 18 18 17
20 20 20 21 21 22 22 23 23 22 22 21 21 21 21 20 19 19 20 20 19 19 19 19 19 19 19 20 20 19 18 18 18 18 17 17 17 17
21 20 21 23 22 21 20 20 20 20 21 22 23 23 22 20 19 19 19 20 19 19 18 19 18 19 19 19 19 18 18 18 17 17 18 17 16 16
23 23 23 23 24 24 23 23 22 21 20 20 20 21 20 20 20 19 20 19 20 18 19 18 19 19 19 18 18 19 18 17 17 17 17 17 17 16
23 24 24 24 24 24 24 23 22 21 19 19 19 19 19 19 20 20 19 19 19 19 19 18 18 18 17 17 18 18 17 17 17 16 17 16 16 16
21 21 21 21 24 24 22 22 21 19 19 19 19 19 19 19 20 20 20 19 19 19 19 18 17 17 17 18 17 17 17 17 16 16 15 15 15 15
22 22 21 20 21 22 21 21 21 20 19 20 20 20 20 20 19 20 20 19 18 18 18 18 16 16 16 16 17 17 16 16 15 14 14 14 14 15
22 20 20 20 20 21 21 20 20 20 20 19 19 20 19 19 20 18 18 17 17 16 16 16 14 14 14 15 15 15 14 14 13 13 13 13 13 14
22 22 21 21 20 20 20 21 20 19 20 19 19 20 19 19 18 18 18 17 17 17 16 15 15 15 13 14 13 13 14 11 10 10 11 12 13 14
22 21 20 20 20 20 21 20 20 20 19 19 19 19 18 18 17 17 17 16 16 16 15 15 15 16 16 16 13 15 14 14 13 13 13 13 13 13
21 20 20 20 20 20 20 20 20 19 18 18 17 17 17 17 17 16 16 15 16 16 15 15 14 15 17 15 14 13 14 14 11 11 12 12 12 11
20 19 20 20 20 19 19 19 18 17 17 16 16 16 16 16 15 16 16 16 16 14 14 14 13 12 13 11 11 13 12 11 9 10 9 10 9 8
20 20 19 19 19 18 17 16 15 15 16 16 16 15 15 15 15 15 14 13 13 13 14 14 12 12 12 10 9 11 12 9 9 8 8 7 6 6
17 18 18 18 18 18 17 17 17 16 16 15 15 14 14 13 13 13 13 13 13 12 13 13 12 14 12 11 10 11 11 10 10 8 8 7 6 6
17 17 17 17 17 17 16 16 15 14 14 14 13 13 13 13 13 13 13 13 12 12 12 12 12 12 12 12 12 10 9 10 10 9 9 10 10 9
17 16 16 15 15 14 14 13 12 12 12 12 12 12 12 12 12 12 12 12 12 12 12 12 13 12 12 12 11 10 9 9 9 8 8 9 9 9
Height
1609 1609 1610 1612 1613 1613 1613 1613 1614 1612 1611 1610 1610 1608 1608 1607 1606 1603 1602 1600 1599 1598 1597 1596 1595 1594 1593 1592 1590 1589 1588 1587 1586 1585 1583 1584 1583 1581
1607 1608 1607 1610 1610 1611 1611 1612 1612 1612 1611 1610 1609 1608 1605 1604 1603 1600 1599 1597 1595 1594 1593 1591 1590 1589 1587 1586 1585 1583 1582 1581 1580 1580 1580 1580 1576 1577
1603 1604 1604 1605 1607 1609 1609 1609 1609 1609 1608 1607 1607 1605 1601 1599 1598 1596 1594 1592 1590 1587 1588 1586 1584 1582 1581 1580 1578 1577 1576 1574 1574 1573 1572 1572 1572 1573
1599 1600 1601 1603 1601 1603 1605 1605 1606 1605 1604 1602 1602 1600 1597 1595 1591 1589 1588 1587 1585 1584 1579 1578 1577 1576 1574 1572 1571 1569 1567 1565 1565 1564 1564 1564 1566 1567
1595 1596 1597 1598 1598 1599 1600 1602 1602 1601 1600 1598 1596 1596 1594 1592 1588 1584 1582 1579 1576 1575 1572 1569 1569 1567 1565 1563 1561 1558 1556 1555 1556 1556 1556 1556 1558 1559
1590 1591 1593 1593 1593 1594 1595 1596 1596 1596 1596 1594 1592 1591 1590 1588 1585 1582 1580 1578 1575 1574 1571 1568 1563 1558 1555 1553 1550 1547 1546 1546 1546 1546 1546 1547 1548 1549
1585 1586 1587 1588 1589 1590 1591 1592 1593 1592 1591 1590 1589 1587 1586 1584 1582 1579 1576 1573 1569 1569 1564 1562 1559 1554 1550 1543 1540 1539 1539 1536 1535 1535 1537 1538 1539 1539
1579 1580 1581 1582 1583 1584 1585 1586 1587 1585 1584 1584 1583 1581 1579 1579 1577 1574 1570 1568 1560 1564 1557 1553 1552 1546 1543 1540 1536 1531 1528 1527 1526 1525 1524 1526 1527 1528
1573 1574 1575 1577 1577 1577 1578 1578 1578 1578 1577 1576 1572 1572 1571 1571 1568 1565 1562 1559 1555 1554 1550 1541 1543 1537 1535 1532 1529 1524 1520 1515 1513 1512 1511 1509 1511 1515
1566 1567 1568 1569 1570 1572 1572 1572 1570 1570 1569 1567 1564 1562 1562 1561 1561 1559 1554 1549 1546 1544 1542 1532 1533 1527 1525 1521 1518 1514 1511 1507 1502 1500 1499 1498 1497 1499
1557 1558 1560 1560 1561 1563 1563 1562 1561 1560 1562 1560 1558 1557 1556 1556 1555 1551 1548 1545 1536 1537 1538 1531 1526 1521 1517 1513 1509 1505 1500 1497 1494 1489 1487 1486 1487 1485
1549 1549 1550 1551 1553 1555 1555 1555 1552 1553 1554 1554 1552 1550 1549 1548 1548 1546 1543 1540 1537 1529 1531 1527 1519 1516 1506 1502 1500 1496 1492 1487 1483 1478 1475 1473 1474 1472
1541 1543 1543 1542 1544 1546 1546 1546 1545 1548 1547 1547 1545 1544 1545 1543 1541 1540 1537 1534 1531 1527 1526 1522 1515 1511 1508 1496 1492 1488 1484 1477 1470 1464 1460 1459 1457 1459
1534 1538 1539 1537 1536 1538 1538 1538 1540 1541 1539 1539 1537 1536 1536 1536 1535 1533 1530 1529 1526 1523 1520 1517 1511 1508 1501 1492 1485 1479 1476 1469 1462 1454 1446 1443 1441 1441
1525 1529 1530 1530 1530 1530 1531 1533 1534 1533 1533 1532 1531 1531 1530 1529 1527 1526 1524 1522 1519 1518 1517 1511 1506 1501 1496 1488 1480 1472 1463 1456 1450 1442 1433 1430 1428 1428
1517 1519 1522 1522 1523 1524 1525 1526 1527 1527 1526 1525 1525 1524 1523 1523 1522 1522 1521 1519 1517 1515 1513 1507 1501 1495 1489 1483 1475 1469 1459 1448 1439 1433 1423 1416 1413 1414
1512 1513 1514 1515 1517 1518 1519 1520 1520 1520 1520 1518 1519 1518 1521 1520 1519 1518 1515 1514 1512 1510 1506 1503 1498 1493 1487 1479 1473 1466 1456 1446 1437 1425 1415 1408 1406 1405
1505 1506 1507 1509 1510 1512 1512 1513 1513 1514 1514 1514 1515 1516 1515 1514 1514 1512 1510 1509 1508 1506 1503 1500 1496 1490 1486 1479 1474 1465 1456 1445 1435 1425 1417 1411 1407 1404
1500 1501 1503 1503 1504 1506 1507 1507 1508 1508 1508 1510 1511 1510 1510 1509 1508 1508 1507 1506 1504 1501 1499 1497 1493 1487 1482 1480 1476 1466 1456 1445 1438 1430 1424 1419 1414 1412
1495 1496 1498 1498 1499 1500 1502 1504 1505 1504 1503 1504 1504 1506 1506 1506 1505 1504 1502 1500 1498 1496 1496 1494 1490 1484 1481 1478 1473 1466 1459 1451 1444 1435 1430 1427 1425 1426
1491 1492 1492 1493 1494 1495 1497 1498 1498 1498 1499 1499 1499 1500 1498 1498 1498 1496 1495 1493 1492 1492 1491 1489 1485 1481 1478 1478 1474 1468 1462 1456 1451 1447 1441 1437 1439 1440
1485 1486 1487 1489 1490 1492 1492 1493 1493 1494 1494 1494 1495 1494 1494 1494 1493 1492 1491 1489 1488 1486 1485 1484 1483 1479 1477 1475 1473 1470 1466 1461 1458 1456 1452 1449 1448 1449
1480 1481 1483 1485 1487 1488 1489 1489 1490 1490 1490 1490 1490 1490 1489 1489 1489 1488 1487 1486 1484 1482 1480 1480 1479 1477 1475 1473 1471 1471 1467 1465 1462 1462 1460 1456 1454 1454
Wind_Speed
9 9 9 8 8 6 6 6 5 5 4 5 3 6 6 8 10 12 15 16 15 17 18 18 17 17 17 17 18 19 19 19 18 16 15 11 10 9
9 11 10 9 10 8 8 8 8 9 10 7 8 10 12 11 13 16 17 18 20 19 21 23 23 23 23 22 22 22 22 23 23 21 18 15 13 11
13 13 13 13 11 10 10 11 12 12 14 14 13 14 22 19 19 21 23 24 23 25 22 23 25 27 28 28 28 27 26 26 26 26 25 22 19 17
15 15 15 13 15 15 14 15 15 16 16 21 18 19 20 22 27 26 26 23 23 25 31 29 28 29 31 31 33 34 33 32 31 30 30 28 25 22
17 18 17 16 17 15 15 15 15 16 16 18 21 19 20 21 24 25 26 27 26 24 25 27 27 28 30 33 36 37 38 39 37 35 33 34 31 28
20 19 19 19 19 18 17 18 17 18 19 22 22 22 21 21 21 23 22 21 24 23 25 27 31 33 32 31 35 38 40 41 43 42 39 37 37 34
22 22 23 23 24 23 19 18 18 19 20 21 23 22 22 22 22 25 28 28 28 27 29 28 29 28 29 35 36 33 33 37 42 46 46 43 41 40
25 25 25 27 26 26 26 25 26 28 29 27 26 27 29 28 26 30 32 33 38 24 25 30 30 33 33 30 31 36 40 37 33 35 44 50 48 45
27 26 25 23 25 28 29 30 31 31 32 34 38 37 37 34 32 33 33 34 32 29 32 36 28 32 28 28 31 34 40 41 39 37 34 39 50 52
33 31 33 33 31 28 25 26 28 29 31 34 39 39 35 29 27 28 31 35 34 33 29 36 28 34 31 34 35 36 39 40 42 39 35 33 39 50
38 39 39 39 38 37 37 39 39 37 30 32 35 33 30 27 24 27 29 32 39 31 24 31 33 34 36 37 34 32 34 36 39 41 39 34 31 38
37 39 41 42 41 40 38 37 38 34 26 25 26 26 24 24 21 25 27 29 32 39 25 33 38 37 40 39 31 33 34 34 38 43 43 43 40 39
29 28 27 30 32 29 30 31 32 26 24 24 25 23 20 23 26 27 31 32 29 33 33 28 37 34 31 40 38 37 34 36 38 37 40 38 42 36
31 25 24 26 28 23 23 26 24 21 26 28 30 31 29 28 29 29 26 24 27 30 31 27 26 27 32 37 38 38 35 35 33 38 39 35 44 36
32 24 26 28 28 24 24 23 23 25 26 29 28 27 28 27 26 23 19 17 18 17 17 22 21 22 24 29 33 35 37 35 28 34 41 34 34 45
32 33 31 30 28 25 24 24 24 24 25 26 29 25 24 21 12 13 14 12 14 13 13 16 21 22 24 26 27 27 37 34 37 34 33 27 31 31
27 26 25 26 27 26 26 26 26 27 29 27 17 16 12 13 12 11 10 11 12 14 15 13 17 20 25 27 23 33 40 36 33 37 33 24 24 32
22 25 23 23 24 25 25 25 21 18 17 15 11 11 11 10 10 9 10 10 11 12 14 12 14 20 22 24 26 34 34 36 35 38 33 27 18 18
20 20 20 21 21 20 19 17 14 12 16 11 9 9 9 9 11 9 10 10 12 12 11 11 12 15 22 18 17 30 32 33 31 29 25 14 2 6
20 18 18 17 16 13 12 8 6 10 13 15 13 8 9 9 10 10 10 12 12 11 10 10 10 11 14 15 18 23 24 26 25 20 17 14 12 9
13 15 15 16 16 17 17 17 17 16 15 14 14 9 11 12 9 11 12 16 16 10 12 10 10 11 9 8 12 17 16 19 18 17 15 19 26 32
15 14 13 14 15 15 15 16 15 14 14 14 13 13 12 12 13 13 14 14 17 16 12 11 9 6 5 7 9 10 8 12 16 18 21 23 21 21
17 14 13 12 12 12 12 13 11 11 12 13 13 12 14 15 15 17 18 17 18 17 12 10 9 6 4 3 1 1 2 4 7 9 9 12 12 13
Wind_Direction
235 234 235 238 245 247 253 253 253 278 298 287 257 263 267 279 279 291 290 290 291 286 286 284 283 280 278 275 273 273 273 273 273 273 272 275 277 283
225 234 230 230 242 245 244 250 251 256 273 260 281 273 272 280 284 290 289 289 289 287 283 284 283 282 281 280 278 276 273 271 271 268 268 266 261 264
224 231 239 234 234 244 251 250 253 258 266 274 277 283 292 290 287 283 290 290 284 288 287 285 285 283 280 279 278 276 275 272 268 266 262 260 258 253
234 235 238 240 248 241 242 248 251 257 264 274 278 282 285 289 298 296 294 287 279 281 288 292 284 282 281 280 278 275 272 271 269 264 261 258 255 256
234 235 238 238 243 241 247 249 262 271 274 277 284 285 285 286 289 298 305 301 299 298 295 296 292 287 283 279 277 275 273 270 267 265 262 258 255 255
238 236 238 240 244 250 253 257 263 264 269 275 281 287 290 290 287 293 300 302 299 296 291 289 290 293 290 283 276 272 270 268 266 264 262 259 255 253
241 243 247 248 251 255 252 260 258 266 271 274 278 284 287 291 290 293 294 300 298 301 300 296 295 292 292 294 293 289 280 273 271 266 260 259 257 253
244 247 248 251 255 256 258 260 264 269 271 271 274 277 279 287 293 293 293 294 296 300 293 294 298 294 291 288 286 283 285 292 286 277 264 257 256 254
246 248 250 252 263 264 264 264 264 265 269 275 275 275 279 285 291 292 293 289 289 295 299 296 296 291 294 295 291 287 289 291 296 290 280 259 251 251
248 252 256 256 254 254 260 264 269 273 276 278 279 285 290 294 292 291 290 293 293 299 307 302 307 300 300 300 301 295 292 293 291 292 289 277 259 248
252 255 257 261 263 266 268 270 273 273 272 275 281 286 286 285 285 285 286 294 300 302 303 298 306 303 304 299 302 303 295 292 289 293 290 282 276 266
254 256 256 258 261 267 270 272 273 275 275 275 274 280 286 292 287 278 290 296 298 300 303 309 309 309 309 307 308 303 301 297 289 285 283 284 276 271
246 250 256 263 263 261 262 262 264 270 273 274 277 278 278 278 283 291 293 297 297 296 305 304 301 307 305 307 309 314 311 306 304 294 282 286 274 266
242 248 252 257 263 262 257 258 262 264 266 270 271 277 280 283 288 288 292 291 291 293 296 303 304 308 307 308 311 315 316 311 306 301 298 292 275 278
239 238 237 244 256 258 254 256 254 259 265 273 275 283 287 287 290 295 306 305 305 303 297 294 305 310 314 313 315 321 325 319 315 303 301 292 289 269
237 241 245 248 249 250 249 252 258 263 266 273 280 284 280 287 289 289 286 289 295 304 298 307 313 325 326 328 325 327 334 332 329 328 320 293 289 287
242 243 242 246 250 249 257 263 266 272 275 267 272 284 278 276 283 281 289 294 297 302 311 317 312 335 338 341 336 344 343 344 343 345 346 321 301 284
232 236 243 246 250 256 260 263 262 260 267 271 269 268 273 277 277 281 286 295 297 302 307 313 318 330 345 349 348 344 351 356 359 356 354 344 303 260
232 237 242 243 247 253 248 245 255 264 258 267 266 270 274 278 284 286 287 291 289 296 306 312 317 332 345 344 342 352 356 10 5 1 357 349 235 168
229 234 240 237 235 233 235 234 223 232 246 255 258 266 272 277 276 275 276 276 293 302 306 301 316 333 341 339 339 359 13 18 14 23 36 46 67 105
215 222 222 232 237 240 242 248 254 257 260 266 271 269 266 269 277 280 276 297 300 297 291 301 303 326 357 342 346 7 28 42 47 55 65 94 117 120
212 215 223 233 240 250 257 260 260 262 268 274 277 273 274 279 281 287 290 289 287 287 287 290 293 311 322 328 337 344 52 82 85 93 109 109 124 143
201 205 217 228 239 252 264 270 265 267 271 274 279 283 285 284 284 289 294 292 292 284 278 283 270 281 301 328 15 288 38 134 128 121 124 117 114 108